Theta_e
325 324 323 322 321 321 321 321 324 323 323 323 323 323 324 324 323 323 322 322 321 321
327 325 324 324 324 323 323 324 324 325 323 323 323 324 324 323 323 323 323 323 322 321
326 327 326 326 324 324 324 325 325 325 325 324 324 324 324 324 324 323 323 322 322 321
324 325 326 326 325 325 325 325 325 326 326 325 324 325 325 325 324 322 321 321 320 320
323 324 325 325 325 325 325 326 326 326 325 325 324 324 324 324 323 321 319 319 318 318
318 321 323 324 325 325 325 325 325 325 324 324 323 323 323 324 322 320 320 318 317 317
309 316 320 322 323 323 324 324 323 323 323 323 322 321 320 321 319 319 318 317 317 316
308 311 315 316 319 321 320 321 321 320 320 319 317 316 314 317 317 316 313 309 310 308
306 307 308 310 311 311 312 313 313 311 313 312 308 303 304 311 313 309 307 300 296 295
302 303 305 305 305 305 309 308 310 312 311 309 306 300 301 300 308 304 302 297 295 293
298 300 299 300 300 301 302 305 303 303 306 305 301 298 298 296 302 301 299 297 295 293
294 296 296 296 297 297 296 295 295 294 295 296 293 296 296 297 294 293 291 292 293 293
292 294 296 296 294 291 293 291 291 290 292 290 290 294 295 296 292 289 289 288 288 288
289 291 294 292 289 289 289 288 289 288 288 289 290 292 294 294 293 291 289 288 287 288
Wind_Speed
20 14 15 17 14 13 13 13 14 15 17 17 16 16 14 11 11 12 11 13 10 8
19 21 18 20 16 13 14 12 14 15 18 17 16 16 16 12 14 13 13 13 12 11
19 20 19 17 17 16 15 15 14 16 18 18 18 17 16 14 14 14 11 9 12 11
16 18 17 17 17 16 16 16 16 18 18 18 18 17 16 17 15 15 13 11 12 12
13 14 15 16 17 16 16 17 15 16 16 17 17 17 18 17 15 15 14 12 12 12
9 13 16 17 16 15 15 16 15 15 17 17 17 16 16 16 14 14 13 13 13 12
10 12 13 14 14 13 14 14 13 15 16 16 15 15 14 14 12 13 12 12 12 11
10 8 8 9 11 13 12 13 13 13 13 11 10 9 11 12 12 12 10 7 7 7
8 7 7 8 10 9 9 9 9 9 11 10 6 12 15 13 9 9 10 8 6 5
7 8 8 7 6 7 9 7 10 11 11 10 8 13 14 13 9 9 9 10 10 7
8 10 8 7 7 6 4 8 6 7 8 8 6 13 14 13 9 8 9 11 11 12
8 10 8 8 7 5 5 4 5 5 7 8 6 11 15 12 8 8 8 8 9 11
8 10 10 9 7 4 4 5 6 6 7 7 8 12 15 13 8 9 7 5 6 10
8 10 10 7 5 4 5 5 6 5 5 7 9 11 15 17 10 10 9 8 7 5
Wind_Direction
215 215 218 214 210 214 213 217 209 209 211 214 212 213 212 214 215 212 212 214 208 213
215 215 218 222 223 218 216 216 210 203 207 211 210 213 212 215 215 208 208 212 210 214
218 222 220 225 219 217 219 216 209 205 205 207 208 210 208 215 217 211 209 207 208 212
226 228 230 228 223 216 219 217 214 208 205 206 205 206 210 216 216 210 206 198 205 211
228 226 223 229 227 220 222 222 216 214 211 209 205 203 208 211 210 206 198 198 199 209
233 223 228 227 223 224 225 224 220 212 210 210 208 205 207 208 206 202 202 194 200 205
238 233 231 229 226 218 216 216 212 211 212 209 207 204 199 199 192 190 195 192 198 201
248 229 226 224 216 207 204 212 209 210 214 206 196 191 185 190 187 187 186 176 180 177
262 261 244 238 224 210 205 192 185 191 196 189 191 178 182 184 187 175 172 157 127 118
248 246 238 244 242 225 205 188 191 198 179 192 181 171 178 172 170 165 160 151 148 137
263 261 242 211 225 231 208 192 177 191 198 180 178 168 174 172 155 156 157 159 156 141
258 258 244 235 220 201 198 175 178 170 170 173 172 168 163 145 138 139 145 143 143 143
258 254 250 236 215 193 198 201 168 172 176 171 159 162 161 146 137 130 137 119 121 134
242 237 239 226 175 191 178 162 160 168 160 155 160 165 162 151 150 150 146 146 136 138